FW1583 Falls Church VA US current weather conditions

sailwx.info

Wind from 175

Air temperature 7.2° C
Dewpoint 6.8° C

Last reported at 2020-Jan-25 13:03 UTC.
Time now 2020-Jan-25 13:42 UTC

Location: N 38°52' W 077°09'.
View on Google Maps.

See reports from other nearby stations

  
Tides and Currents Weather Stations Pressure Air Temp Water Temp Dewpoint Dewpoint Depression Visibility Wind Speed Wind Dir Waves Ship Positions
date/time (UTC)wind fromknots sea level pressurealtimeterstation pressurevisibilityair tempwater tempwave heightnotes
2020-Jan-25 13:03 175 7.2
2020-Jan-25 12:53 112 7.2
2020-Jan-25 12:43 022 7.2
2020-Jan-25 12:33 022 7.2
2020-Jan-25 12:24 022 7.2
2020-Jan-25 12:15 022 7.2
2020-Jan-25 12:05 022 7.2
2020-Jan-25 11:55 022 7.2
2020-Jan-25 11:45 022 7.2
2020-Jan-25 11:36 022 7.2
2020-Jan-25 11:26 247 7.2
2020-Jan-25 11:17 292 7.2
2020-Jan-25 11:08 022 7.2
2020-Jan-25 10:59 281 7.2
2020-Jan-25 10:49 292 7.2
2020-Jan-25 10:39 305 0 7.2
2020-Jan-25 10:29 285 0 7.8
2020-Jan-25 10:20 262 0 7.8
2020-Jan-25 10:10 292 0 7.8
2020-Jan-25 10:00 315 7.8
2020-Jan-25 09:50 313 8.3
2020-Jan-25 09:41 292 8.3
2020-Jan-25 09:31 292 7.8
2020-Jan-25 09:22 288 0 7.8
2020-Jan-25 09:12 219 7.8
2020-Jan-25 09:02 157 7.8
2020-Jan-25 08:53 116 1 7.8
2020-Jan-25 08:44 135 7.8
2020-Jan-25 08:35 112 7.8
2020-Jan-25 08:25 147 7.2
2020-Jan-25 08:16 202 7.2
2020-Jan-25 08:07 247 7.2
2020-Jan-25 07:57 090 7.2
2020-Jan-25 07:47 134 7.2
2020-Jan-25 07:38 090 7.2
2020-Jan-25 07:29 133 7.2
2020-Jan-25 07:20 160 7.2
2020-Jan-25 07:11 113 7.2
2020-Jan-25 07:01 113 7.2
2020-Jan-25 06:52 148 0 7.2
2020-Jan-25 06:42 197 7.2
2020-Jan-25 06:33 127 0 7.2
2020-Jan-25 06:24 202 7.2
2020-Jan-25 06:14 112 7.2
2020-Jan-25 06:05 129 1 7.2
2020-Jan-25 05:55 112 0 7.2
2020-Jan-25 05:45 155 0 7.2
2020-Jan-25 05:35 138 0 7.2
2020-Jan-25 05:25 120 0 7.2
2020-Jan-25 05:15 190 0 7.2
2020-Jan-25 05:05 133 0 7.2
2020-Jan-25 04:55 139 0 7.2
2020-Jan-25 04:46 186 7.2
2020-Jan-25 04:36 135 7.2
2020-Jan-25 04:26 125 0 7.2
2020-Jan-25 04:16 124 7.8
2020-Jan-25 04:07 090 7.8
2020-Jan-25 03:57 090 7.8
2020-Jan-25 03:48 145 7.8
2020-Jan-25 03:39 135 7.8
2020-Jan-25 03:29 113 7.8
2020-Jan-25 03:19 154 7.8
2020-Jan-25 03:09 110 7.8
2020-Jan-25 02:59 112 0 7.8
2020-Jan-25 02:49 107 0 7.8
2020-Jan-25 02:40 130 0 8.3
2020-Jan-25 02:30 112 8.3
2020-Jan-25 02:21 111 0 8.3
2020-Jan-25 02:11 112 8.3
2020-Jan-25 02:02 082 8.3
2020-Jan-25 01:52 090 8.3
2020-Jan-25 01:42 132 0 8.3
2020-Jan-25 01:33 124 0 8.9
2020-Jan-25 01:24 074 8.9
2020-Jan-25 01:14 172 8.9
2020-Jan-25 01:05 180 8.9
2020-Jan-25 00:55 101 8.9
2020-Jan-25 00:46 111 9.4
2020-Jan-25 00:37 103 9.4
2020-Jan-25 00:28 080 1 9.4
2020-Jan-25 00:18 134 9.4
2020-Jan-25 00:08 164 9.4
2020-Jan-24 23:59 090 9.4
2020-Jan-24 23:49 114 0 9.4
2020-Jan-24 23:40 157 9.4
2020-Jan-24 23:30 190 8.9
2020-Jan-24 23:21 202 8.9
2020-Jan-24 23:11 180 8.9
2020-Jan-24 23:02 144 8.9
2020-Jan-24 22:52 135 8.9
2020-Jan-24 22:42 135 8.9
2020-Jan-24 22:33 112 8.9
2020-Jan-24 22:24 136 8.9
2020-Jan-24 22:14 110 8.9
2020-Jan-24 22:04 022 9.4
2020-Jan-24 21:54 337 9.4
2020-Jan-24 21:44 138 9.4
2020-Jan-24 21:35 133 9.4
2020-Jan-24 21:25 157 9.4
2020-Jan-24 21:16 112 9.4
2020-Jan-24 21:06 202 9.4
2020-Jan-24 20:57 112 9.4
2020-Jan-24 20:48 116 1 10.0
2020-Jan-24 20:38 086 9.4
2020-Jan-24 20:28 112 9.4
2020-Jan-24 20:18 022 9.4
2020-Jan-24 20:08 068 8.9
2020-Jan-24 19:59 135 8.9
2020-Jan-24 19:49 192 8.9
2020-Jan-24 19:40 112 0 8.9
2020-Jan-24 19:30 163 9.4
2020-Jan-24 19:20 112 9.4
2020-Jan-24 19:11 040 9.4
2020-Jan-24 19:01 112 9.4
2020-Jan-24 18:51 103 1 10.0
2020-Jan-24 18:42 076 0 10.0
2020-Jan-24 18:32 130 0 10.0
2020-Jan-24 18:23 112 10.0
2020-Jan-24 18:13 180 9.4
2020-Jan-24 18:04 087 0 9.4
2020-Jan-24 17:54 136 8.9
2020-Jan-24 17:45 062 1 8.9
2020-Jan-24 17:35 105 8.9
2020-Jan-24 17:25 112 8.3
2020-Jan-24 17:16 077 1 8.3
2020-Jan-24 17:07 166 0 8.3
2020-Jan-24 16:57 147 0 8.3
2020-Jan-24 16:47 101 0 8.3
2020-Jan-24 16:37 112 8.3
2020-Jan-24 16:27 135 7.8
2020-Jan-24 16:17 112 7.2
2020-Jan-24 16:07 112 6.7
2020-Jan-24 15:58 135 6.7
2020-Jan-24 15:48 202 6.1
2020-Jan-24 15:39 181 0 5.6
2020-Jan-24 15:29 131 0 5.6
2020-Jan-24 15:19 223 5.6
2020-Jan-24 15:09 145 0 5.0
2020-Jan-24 15:00 022 5.0
2020-Jan-24 14:50 237 4.4
2020-Jan-24 14:41 202 4.4
2020-Jan-24 14:32 247 3.9
2020-Jan-24 14:23 112 3.9
2020-Jan-24 14:13 112 3.3
2020-Jan-24 14:04 157 3.3
2020-Jan-24 13:54 157 2.8
2020-Jan-24 13:44 171 2.8
2020-Jan-24 13:35 235 2.2
2020-Jan-24 13:26 202 1.7
2020-Jan-24 13:16 112 1.1
2020-Jan-24 13:06 256 0.6
2020-Jan-24 12:56 247 0.6
2020-Jan-24 12:47 247 1.1
2020-Jan-24 12:37 247 1.1
2020-Jan-24 12:27 247 1.7
2020-Jan-24 12:18 247 1.7
2020-Jan-24 12:09 247 2.2
2020-Jan-24 11:59 247 1.7
2020-Jan-24 11:50 247 1.7
2020-Jan-24 11:41 247 1.7
2020-Jan-24 11:31 247 1.7
2020-Jan-24 11:22 247 1.7
2020-Jan-24 11:12 135 1.1
2020-Jan-24 11:03 135 1.1
2020-Jan-24 10:53 135 1.1
2020-Jan-24 10:44 112 1.1
2020-Jan-24 10:34 112 0.6
2020-Jan-24 10:25 112 0.6
2020-Jan-24 10:16 112 -0.0
2020-Jan-24 10:06 112 -0.0
2020-Jan-24 09:56 112 0.6
2020-Jan-24 09:46 112 -0.0
2020-Jan-24 09:37 112 -0.0
2020-Jan-24 09:27 112 -0.0
2020-Jan-24 09:18 112 -0.0
2020-Jan-24 09:08 112 -0.0
2020-Jan-24 08:49 112 -0.0
2020-Jan-24 08:40 112 -0.0
2020-Jan-24 08:31 112 -0.0
2020-Jan-24 08:21 112 -0.0
2020-Jan-24 08:12 112 0.6
2020-Jan-24 08:02 112 0.6
2020-Jan-24 07:53 112 0.6
2020-Jan-24 07:43 112 0.6
2020-Jan-24 07:33 112 1.1
2020-Jan-24 07:24 112 1.7
2020-Jan-24 07:14 112 1.7
2020-Jan-24 07:04 112 1.7
2020-Jan-24 06:54 112 1.7
2020-Jan-24 06:44 112 1.7
2020-Jan-24 06:34 112 1.7
2020-Jan-24 06:25 112 1.7
2020-Jan-24 06:15 112 1.1
2020-Jan-24 06:05 112 1.1
2020-Jan-24 05:56 112 1.1
2020-Jan-24 05:46 112 1.7
2020-Jan-24 05:37 112 1.7
2020-Jan-24 05:28 112 1.7
2020-Jan-24 05:19 112 1.1
2020-Jan-24 05:09 112 0.6
2020-Jan-24 04:59 112 0.6
2020-Jan-24 04:49 112 -0.0
2020-Jan-24 04:40 112 -0.0
2020-Jan-24 04:31 112 -0.0
2020-Jan-24 04:22 112 -0.0
2020-Jan-24 04:12 112 0.6
2020-Jan-24 04:03 112 0.6
2020-Jan-24 03:54 112 1.1
2020-Jan-24 03:44 112 1.7
2020-Jan-24 03:35 112 1.7
2020-Jan-24 03:25 112 1.1
2020-Jan-24 03:15 112 1.1
2020-Jan-24 03:05 112 1.7
2020-Jan-24 02:55 112 1.7
2020-Jan-24 02:45 112 1.7
2020-Jan-24 02:36 112 1.7
2020-Jan-24 02:26 112 1.7
2020-Jan-24 02:16 112 1.7
2020-Jan-24 02:06 112 2.2
2020-Jan-24 01:56 112 2.2
2020-Jan-24 01:46 112 2.2
2020-Jan-24 01:37 112 2.8
2020-Jan-24 01:28 112 2.8
2020-Jan-24 01:18 112 2.8
2020-Jan-24 01:08 112 2.8
2020-Jan-24 00:58 112 2.2
2020-Jan-24 00:48 112 2.2
2020-Jan-24 00:39 112 2.2
2020-Jan-24 00:30 112 2.2
2020-Jan-24 00:20 112 2.2
2020-Jan-24 00:10 112 2.2
2020-Jan-24 00:00 112 2.2
2020-Jan-23 23:51 112 2.2
2020-Jan-23 23:42 112 2.2
2020-Jan-23 23:32 112 2.8
2020-Jan-23 23:22 112 2.8
2020-Jan-23 23:13 112 2.8
2020-Jan-23 23:03 112 2.8
2020-Jan-23 22:53 112 2.8
2020-Jan-23 22:43 112 3.3
2020-Jan-23 22:33 112 3.3
2020-Jan-23 22:23 112 3.9
2020-Jan-23 22:13 112 3.9
2020-Jan-23 22:03 112 4.4
2020-Jan-23 21:54 112 4.4
2020-Jan-23 21:44 112 5.0
2020-Jan-23 21:34 112 5.0
2020-Jan-23 21:24 112 5.0
2020-Jan-23 21:14 112 5.6
2020-Jan-23 21:05 112 5.6
2020-Jan-23 20:55 090 5.6
2020-Jan-23 20:45 067 5.6
2020-Jan-23 20:35 090 0 5.6
2020-Jan-23 20:26 090 5.6
2020-Jan-23 20:16 135 6.1
2020-Jan-23 20:07 113 5.6
2020-Jan-23 19:58 112 5.6
2020-Jan-23 19:48 080 0 5.6
2020-Jan-23 19:38 108 5.6
2020-Jan-23 19:29 135 5.6
2020-Jan-23 19:19 135 5.0
2020-Jan-23 19:09 225 5.0
2020-Jan-23 18:59 112 5.0
2020-Jan-23 18:50 135 4.4
2020-Jan-23 18:41 135 4.4
2020-Jan-23 18:32 197 4.4
2020-Jan-23 18:22 225 0 4.4
2020-Jan-23 18:13 090 4.4
2020-Jan-23 18:03 090 0 4.4
2020-Jan-23 17:53 090 4.4
2020-Jan-23 17:43 112 4.4
2020-Jan-23 17:34 147 4.4
2020-Jan-23 17:25 292 4.4
2020-Jan-23 17:15 247 4.4
2020-Jan-23 17:06 247 3.9
2020-Jan-23 16:57 090 3.9
2020-Jan-23 16:47 112 0 3.9
2020-Jan-23 16:38 067 3.9
2020-Jan-23 16:29 247 3.9
2020-Jan-23 16:20 131 0 3.9
2020-Jan-23 16:10 135 3.3
2020-Jan-23 16:01 225 2.8
2020-Jan-23 15:51 135 2.8
2020-Jan-23 15:41 135 2.2
2020-Jan-23 15:31 135 1.7
2020-Jan-23 15:22 135 1.7
2020-Jan-23 15:12 135 1.1
2020-Jan-23 15:02 135 0.6
2020-Jan-23 14:53 135 0.6
2020-Jan-23 14:43 135 -0.0
2020-Jan-23 14:34 135 -0.0
2020-Jan-23 14:24 279 -0.6
2020-Jan-23 14:14 292 -1.1
2020-Jan-23 14:04 292 -1.7
2020-Jan-23 13:54 292 -2.2
2020-Jan-23 13:45 292 -2.8
2020-Jan-23 13:36 292 -3.3
2020-Jan-23 13:26 292 -3.3
2020-Jan-23 13:16 292 -3.9
2020-Jan-23 13:07 292 -4.4